Location: Coupvray
(48.8929°N, 2.7967°E)
Time: 04:41:32
(UTC+00:00)

Meteor 1-11 Rocket - Pass Details

Date: 14 July 2020
Orbit: 831 x 915 km, 81.2° (Epoch: 06 August)

Event Time Altitude Azimuth Distance (km) Brightness Sun altitude
Exits shadow 02:04:16 16° 183° (S) 2,050 5.2 -13.8°
Maximum altitude 02:08:45 77° 99° (E) 858 3.8 -13.4°
Drops below altitude 10° 02:14:17 10° 14° (NNE) 2,455 7.4 -12.9°
Sets 02:16:43 0° 13° (NNE) 3,398 8.3 -12.7°
